Location: Borojevi?i
(45.0486°N, 16.2297°E)
Time: 10:26:20
(UTC+00:00)

Cosmos 2369 - Pass Details

Date: 08 August 2020
Orbit: 838 x 857 km, 71.0° (Epoch: 21 September)

Event Time Altitude Azimuth Distance (km) Brightness Sun altitude
Rises 19:56:52 0° 332° (NNW) 3,439 8.3 -16.2°
Reaches altitude 10° 19:59:20 10° 331° (NNW) 2,499 7.3 -16.6°
Maximum altitude 20:05:04 76° 247° (WSW) 886 3.8 -17.3°
Enters shadow 20:08:30 25° 166° (SSE) 1,656 4.7 -17.7°
